Regional Weather Roundup
Issued by NWS

Home | Current Version | Previous Version | Text Only | Print | Product List | Glossary Off
Versions: 1 2 3 4 5 6 7 8 9 10 11 12 13 14 15 16 17 18 19 20 21 22 23 24 25 26 27 28 29 30 31 32 33 34 35 36 37 38 39 40 41 42 43 44 45 46 47 48 49 50

470
ASUS43 KLMK 260310
RWRKY
KENTUCKY REGIONAL WEATHER ROUNDUP
NATIONAL WEATHER SERVICE LOUISVILLE KY
1100 PM EDT MON JUL 25 2016

NOTE "FAIR" INDICATES FEW OR NO CLOUDS BELOW 12,000 FEET
WITH NO SIGNIFICANT WEATHER AND/OR OBSTRUCTIONS TO VISIBILITY.

KYZ001>023-026-027-061>063-070>075-260400-
WESTERN AND SOUTH CENTRAL KENTUCKY

CITY           SKY/WX    TMP DP  RH WIND       PRES   REMARKS
PADUCAH        CLEAR     77  74  90 SW5       29.98R
HENDERSON      MOCLDY    73  70  88 CALM      29.99R
OWENSBORO      CLOUDY    76  76 100 CALM      30.00R
HOPKINSVILLE   PTCLDY    75  73  92 S2        30.00R
BOWLING GREEN  CLOUDY    76  72  87 SW3       30.01R
GLASGOW        PTCLDY    75  74  96 CALM      30.01S
$$

KYZ024-025-028>034-038-045-046-053-260400-
NORTH CENTRAL KENTUCKY

CITY           SKY/WX    TMP DP  RH WIND       PRES   REMARKS
LOUISVILLE/SDF MOCLDY    78  73  84 S5        29.99S
LOUISVILLE/LOU CLOUDY    78  73  84 SE3       30.01R
FORT KNOX      CLOUDY    75  74  96 SE5       30.00R
$$

KYZ035>037-039>044-047>052-055>060-089>105-260400-
NORTHEAST KENTUCKY

CITY           SKY/WX    TMP DP  RH WIND       PRES   REMARKS
LEXINGTON      PTCLDY    76  72  87 S5        30.03S
COVINGTON      CLOUDY    78  76  93 S3        30.01R
FRANKFORT      CLOUDY    77  72  84 W5        30.02R
$$

KYZ054-064>069-076>088-106>120-260400-
SOUTHEAST KENTUCKY

CITY           SKY/WX    TMP DP  RH WIND       PRES   REMARKS
JACKSON        MOCLDY    74  72  93 CALM      30.07R
LONDON         CLOUDY    74  68  81 W5        30.07R
SOMERSET       MOCLDY    72  72 100 S3        30.07S
MIDDLESBORO    PTCLDY    80  71  74 W7        30.08F
MONTICELLO     PTCLDY   N/A N/A N/A CALM      30.07S
$$





USA.gov is the U.S. government's official web portal to all federal, state and local government web resources and services.